Hourly Data Report for October 06, 2016

All times are specified in Local Standard Time (LST). Add 1 hour to adjust for Daylight Saving Time where and when it is observed.

FREDERICTON
NEW BRUNSWICK

45°52'08.000" N
66°32'14.000" W
20.70 m
8101505
71700
YFC

Download Data

Hourly Data (October 2016)
Hourly Data Report for October 6, 2016
Temp Definition
°C
Dew Point Temp Definition
°C
Rel Hum Definition
%
Wind Dir Definition
10's deg

Wind Spd Definition
km/h
Visibility Definition
km
Stn Press Definition
kPa
Hmdx Definition


Wind Chill Definition


Weather Definition


TIME
00:00 Legend Double Dagger 7.7 7.4 98 21 8 16.1 102.19     LegendNANA
01:00 Legend Double Dagger 6.8 6.5 98 22 8 16.1 102.21     LegendNANA
02:00 Legend Double Dagger 4.4 4.3 99 20 9 14.5 102.19     LegendNANA
03:00 Legend Double Dagger 5.0 4.9 99 25 5 12.9 102.17     LegendNANA
04:00 Legend Double Dagger 3.0 2.9 99 28 4 6.4 102.19     Fog
05:00 Legend Double Dagger 2.0 2.0 100 24 4 0.6 102.19     Fog
06:00 Legend Double Dagger 2.1 2.1 100 25 4 0.4 102.20     Fog
07:00 Legend Double Dagger 1.9 1.9 100 18 5 0.2 102.20     Fog
08:00 Legend Double Dagger 4.8 4.8 100 22 5 9.7 102.19     Fog
09:00 Legend Double Dagger 9.4 8.5 94 LegendMM 4 16.1 102.24     LegendNANA
10:00 Legend Double Dagger 13.0 10.1 82 LegendMM 4 16.1 102.21     LegendNANA
11:00 Legend Double Dagger 17.0 11.6 70 LegendMM 4 16.1 102.15     LegendNANA
12:00 Legend Double Dagger 19.7 11.6 59 36 9 16.1 102.08     LegendNANA
13:00 Legend Double Dagger 20.8 10.0 50 23 21 16.1 102.00     LegendNANA
14:00 Legend Double Dagger 21.4 9.8 47 26 15 16.1 101.95     LegendNANA
15:00 Legend Double Dagger 21.9 10.6 48 25 11 16.1 101.91     LegendNANA
16:00 Legend Double Dagger 21.7 11.0 50 25 11 16.1 101.88     LegendNANA
17:00 Legend Double Dagger 20.8 11.1 53 27 8 16.1 101.95     LegendNANA
18:00 Legend Double Dagger 16.2 11.8 75 23 9 16.1 101.95     LegendNANA
19:00 Legend Double Dagger 14.7 10.9 78 22 11 16.1 101.96     LegendNANA
20:00 Legend Double Dagger 13.0 10.6 85 24 9 16.1 102.03     LegendNANA
21:00 Legend Double Dagger 11.2 9.9 92 LegendMM 4 16.1 102.07     LegendNANA
22:00 Legend Double Dagger 10.1 9.3 95 20 5 16.1 102.09     LegendNANA
23:00 Legend Double Dagger 9.9 9.3 96 24 4 16.1 102.10     LegendNANA

Notes on Data Quality.

Legend

  • E = Estimated
  • M = Missing
  • NA = Not Available
  • ‡ = Partner data that is not subject to review by the National Climate Archives
Date modified: